"Pseudo-MPEC" for P10NVD1

Created 2019 May 21 3:07:24 UT using Find_Orb

Click here for an explanation of pseudo-MPECs

 
 Astrometry: 
     P10NVD1  C2019 04 27TZL0F3J!Bf@i;m1WW:KC\]22ACAP0L*jxnkeFb+@Q4cWEW(hm?*%F51
     P10NVD1  C2019 04 27Q%#r/3xmAstrometryXQb#ZI$?i0@WMw*ZDwy)VQ.Y#rGeYS'6IbF51
     P10NVD1  C2019 04 27_('(8!:?yp#Y;TXD0c,Dg$kCD$PK:Sgy[I[MJOlIFI\a#o+hXk2yF51
     P10NVD1  C2019 04 27p#vn[L?uZaN;0/iZ_5*__fFb[+PnvbmF?D:TJ4O*u#F+gi?$IecjF51
     P10NVD1  C2019 05 12e%pVsFsAml?aGiOPt$T@/u/O!gR@Qv+WUgO!:JHairedacted;dbF51
     P10NVD1  C2019 05 12Ym8SrlM[A6dv#=T9!eo0-yf!Ihbm,Jc3r/`SQv'y5x.(yclickMxF51
     P10NVD1  C2019 05 12d4QP6rRG%#M%@`Q)^ZP*k:ltm?LW.#aDWZv%_S,sGI#G-7xdS\UmF51
     P10NVD1 KC2019 05 14NOaGUrUXZyj:PIS)UK#tZ$'qVk%8GLfP33,,CfBbZr1heregVg8YH21
     P10NVD1 KC2019 05 14C2m!9W_CI,pi6]Wvi;/BWCoi0K0H^-4Q/NI@gmjs=3cj`DjU-g2QH21
     P10NVD1 KC2019 05 156!;;1ysR*(ZSHGlt=^rJDp;y#\1.rg$3RBfKtJS/#VVX+O\iG-g=291
     P10NVD1 KC2019 05 15fu^Q)0r-CKOcv$3*3j:CHpNxS=E:^=$80A0()-S2p*6)h#s\Gv,O291
     P10NVD1 KC2019 05 15t9forGsS+6o0No@explanationJYSf0?6nVs\3GrZCXdqr1jK'A/291

Station data:
(291) LPL/Spacewatch II  (N31.961669 W111.599905)  US/Arizona.  Observers J.
   V. Scotti, R. S. McMillan. 1.8-m f/2.7 reflector + CCD.
(F51) Pan-STARRS 1, Haleakala  (N20.707235 W156.255910)  US/Hawaii.
   Observers N. Primak, A. Schultz, S. Watters, J. Thiel, T. Goggia. Measurer
   PS1 Science Consortium. 1.8-m Ritchey-Chrétien + CCD.
(H21) Astronomical Research Observatory, Westfield  (N39.483057 W87.968270)
   US/Illinois. 0.76-m f/3.0 astrograph + CCD.

Orbital elements:  P10NVD1
   Perihelion 2020 Apr 10.618408 +/- 1.53 TT = 14:50:30 (JD 2458950.118408)
Epoch 2019 May 15.0 TT = JDT 2458618.5   Earth MOID: 0.7990   AutoNEOCP
M 228.82204535 +/- 0.6              (J2000 ecliptic)
n   0.39556897 +/- 0.000222         Peri.  276.10802 +/- 0.47
a   1.83789727 +/- 0.000689         Node    97.70977 +/- 0.047
e   0.0790915 +/- 0.00102           Incl.   24.23989 +/- 0.034
P   2.49/910.06d           H 19.2   G  0.15   U  7.1  
q 1.69253518 +/- 0.00139    Q 1.98325935 +/- 0.00251
From 12 observations 2019 Apr. 27-May 15; mean residual 0".20
Residuals in arcseconds: 
190427 F51  .10+  .18-    190512 F51  .14-  .03+    190514 H21  .10-  .12+    
190427 F51  .07+  .05+    190512 F51  .12+  .02+    190515 291  .40+  .47+    
190427 F51  .05-  .09+    190512 F51  .05-  .08+    190515 291  .32-  .17-    
190427 F51  .12-  .04+    190514 H21  .24+  .40-    190515 291  .17-  .11-    

Ephemerides (geocentric):
Date (UTC) HH   RA              Dec         delta   r     elong  mag " sig PA
---- -- -- --  -------------   -----------  ------ ------ -----  --- ---- ---
2019 05 21 03  16 25 28.731   +09 10 22.86  0.9943 1.9354 149.5 21.5 1.32 161
2019 05 21 04  16 25 25.155   +09 10 04.44  0.9942 1.9354 149.5 21.5 1.33 160
2019 05 21 05  16 25 21.578   +09 09 45.98  0.9941 1.9353 149.5 21.5 1.34 160
2019 05 21 06  16 25 18.000   +09 09 27.47  0.9940 1.9353 149.5 21.5 1.35 160
2019 05 21 07  16 25 14.420   +09 09 08.90  0.9939 1.9353 149.5 21.5 1.36 160
2019 05 21 08  16 25 10.839   +09 08 50.29  0.9938 1.9352 149.5 21.5 1.37 160
2019 05 21 09  16 25 07.256   +09 08 31.63  0.9937 1.9352 149.5 21.5 1.38 160
2019 05 21 10  16 25 03.672   +09 08 12.92  0.9936 1.9352 149.5 21.5 1.39 160
2019 05 21 11  16 25 00.086   +09 07 54.17  0.9935 1.9352 149.6 21.5 1.41 160
2019 05 21 12  16 24 56.499   +09 07 35.36  0.9934 1.9351 149.6 21.5 1.42 160
2019 05 21 13  16 24 52.910   +09 07 16.50  0.9933 1.9351 149.6 21.5 1.43 160
2019 05 21 14  16 24 49.320   +09 06 57.60  0.9932 1.9351 149.6 21.5 1.44 159
2019 05 21 15  16 24 45.728   +09 06 38.64  0.9931 1.9350 149.6 21.5 1.45 159
2019 05 21 16  16 24 42.135   +09 06 19.64  0.9930 1.9350 149.6 21.5 1.46 159
2019 05 21 17  16 24 38.541   +09 06 00.59  0.9929 1.9350 149.6 21.5 1.47 159
2019 05 21 18  16 24 34.945   +09 05 41.48  0.9928 1.9349 149.6 21.5 1.48 159
2019 05 21 19  16 24 31.348   +09 05 22.33  0.9927 1.9349 149.7 21.5 1.49 159
2019 05 21 20  16 24 27.749   +09 05 03.13  0.9926 1.9349 149.7 21.5 1.50 159
2019 05 21 21  16 24 24.149   +09 04 43.89  0.9925 1.9349 149.7 21.5 1.51 159
2019 05 21 22  16 24 20.548   +09 04 24.59  0.9924 1.9348 149.7 21.5 1.52 159
2019 05 21 23  16 24 16.945   +09 04 05.24  0.9923 1.9348 149.7 21.5 1.54 159
2019 05 22 00  16 24 13.341   +09 03 45.84  0.9922 1.9348 149.7 21.5 1.55 159
2019 05 22 01  16 24 09.735   +09 03 26.40  0.9921 1.9347 149.7 21.5 1.56 158
2019 05 22 02  16 24 06.128   +09 03 06.90  0.9920 1.9347 149.7 21.5 1.57 158
2019 05 22 03  16 24 02.520   +09 02 47.36  0.9920 1.9347 149.7 21.5 1.58 158
2019 05 22 04  16 23 58.911   +09 02 27.77  0.9919 1.9346 149.8 21.5 1.59 158
2019 05 22 05  16 23 55.300   +09 02 08.13  0.9918 1.9346 149.8 21.5 1.60 158
2019 05 22 06  16 23 51.688   +09 01 48.43  0.9917 1.9346 149.8 21.5 1.61 158
2019 05 22 07  16 23 48.074   +09 01 28.69  0.9916 1.9346 149.8 21.5 1.63 158
2019 05 22 08  16 23 44.459   +09 01 08.91  0.9915 1.9345 149.8 21.5 1.64 158
2019 05 22 09  16 23 40.843   +09 00 49.07  0.9914 1.9345 149.8 21.5 1.65 158
2019 05 22 10  16 23 37.226   +09 00 29.18  0.9913 1.9345 149.8 21.5 1.66 158
2019 05 22 11  16 23 33.607   +09 00 09.24  0.9912 1.9344 149.8 21.5 1.67 158
2019 05 22 12  16 23 29.987   +08 59 49.26  0.9911 1.9344 149.8 21.5 1.68 157
2019 05 22 13  16 23 26.366   +08 59 29.22  0.9911 1.9344 149.9 21.5 1.69 157
2019 05 22 14  16 23 22.744   +08 59 09.14  0.9910 1.9344 149.9 21.5 1.71 157
2019 05 22 15  16 23 19.120   +08 58 49.00  0.9909 1.9343 149.9 21.5 1.72 157
2019 05 22 16  16 23 15.495   +08 58 28.82  0.9908 1.9343 149.9 21.5 1.73 157
2019 05 22 17  16 23 11.869   +08 58 08.59  0.9907 1.9343 149.9 21.5 1.74 157
2019 05 22 18  16 23 08.242   +08 57 48.31  0.9906 1.9342 149.9 21.5 1.75 157
2019 05 22 19  16 23 04.613   +08 57 27.98  0.9905 1.9342 149.9 21.5 1.76 157
2019 05 22 20  16 23 00.983   +08 57 07.60  0.9904 1.9342 149.9 21.5 1.78 157
2019 05 22 21  16 22 57.352   +08 56 47.17  0.9904 1.9341 149.9 21.5 1.79 157
2019 05 22 22  16 22 53.720   +08 56 26.69  0.9903 1.9341 149.9 21.5 1.80 157
2019 05 22 23  16 22 50.087   +08 56 06.16  0.9902 1.9341 150.0 21.5 1.81 156
2019 05 23 00  16 22 46.452   +08 55 45.59  0.9901 1.9341 150.0 21.5 1.82 156
2019 05 23 01  16 22 42.817   +08 55 24.96  0.9900 1.9340 150.0 21.5 1.84 156
2019 05 23 02  16 22 39.180   +08 55 04.29  .98994 1.9340 150.0 21.5 1.85 156